Volver al catálogo

STARLINK-37591

ActivoComunicacionesSSO
NORAD 69033·PAYLOAD·🇺🇸 United States

Lanzado May 6, 2026 desde Vandenberg Space Force Base

Loading…

Próximos Pases (próximas 24 horas)

TLE

ActualizadoSource: CelesTrak SupGP

Época: Sep 14, 2026, 23:26 UTC

1 69033C 26101J   26257.97687500  .00085412  00000+0  26499-2 0  2573
2 69033  97.2848 111.5254 0002210  93.3367 191.9365 15.33412435    12

Sigue STARLINK-37591 en tiempo real con AllMySat

Download on the App Store